Regional Weather Roundup
Issued by NWS Newport/Morehead, NC

Current Version | Previous Version | Text Only | Print | Product List | Glossary Off
Versions: 1 2 3 4 5 6 7 8 9 10 11 12 13 14 15 16 17 18 19 20 21 22 23 24 25 26 27 28 29 30 31 32 33 34 35 36 37 38 39 40 41 42 43 44 45 46 47 48 49 50
000 ASUS42 KMHX 301110 RWRMHX WEATHER ROUNDUP FOR EASTERN NORTH CAROLINA NATIONAL WEATHER SERVICE NEWPORT/MOREHEAD CITY NC 600 AM EST FRI JAN 30 2015 NOTE: "FAIR" INDICATES FEW OR NO CLOUDS BELOW 12,000 FEET WITH NO SIGNIFICANT WEATHER AND/OR OBSTRUCTIONS TO VISIBILITY NCZ015>017-031-032-045>047-102-103-301200- NORTH COAST CITY SKY/WX TMP DP RH WIND PRES REMARKS EDENTON RAIN 45 39 78 W8 29.94S ELIZABETH CITY LGT RAIN 45 36 70 W9 29.93S KITTY HAWK CLOUDY 47 38 69 SW8 29.91S MANTEO CLOUDY 46 39 76 SW5 29.93S $$ NCZ045>047-081-094-103-104-301200- CENTRAL COAST CITY SKY/WX TMP DP RH WIND PRES REMARKS FRISCO CLOUDY 50 45 83 W13 29.95S SWANQUARTER NOT AVBL $$ NCZ095-097-098-100-101-301200- SOUTHERN COAST CITY SKY/WX TMP DP RH WIND PRES REMARKS BEAUFORT CLOUDY 51 47 86 W10 29.96S CEDAR ISLAND NOT AVBL JACKSONVILLE CLOUDY 48 42 80 W6 29.96S PINEY ISLAND N/A N/A N/A N/A MISG 29.95S WILMINGTON LGT RAIN 50 44 80 SW7 29.97F $$ NCZ011>013-027>030-043-044-078>080-089-090>093-098-301200- COASTAL PLAIN CITY SKY/WX TMP DP RH WIND PRES REMARKS AHOSKIE CLOUDY 40 33 78 CALM 29.96R CLINTON CLOUDY 46 41 82 W3 29.98R ELIZABETHTOWN CLOUDY 48 42 79 W6 29.98R GOLDSBORO MIX PCPN 44 43 98 CALM 29.96R GREENVILLE DRIZZLE 45 39 81 W7 29.99R HAVELOCK CLOUDY 50 41 71 W9 29.96F KENANSVILLE LGT RAIN 45 40 82 W3 29.98R KINSTON NOT AVBL NEW BERN CLOUDY 51 40 65 W5 29.97S RICHLANDS CLOUDY 46 39 76 W7 29.97S ROCKY MOUNT CLOUDY 44 32 62 W6 29.97R WASHINGTON LGT RAIN 45 39 79 W6 29.96R WHITEVILLE CLOUDY 50 41 70 SW6 29.98R $$ AMZ130-135-150-152-154-156-158-170-250-252-270-ANZ085-086-088-633-658-670-301200- MARINE OBSERVATIONS STATION/POSITION TIME TEMP WIND PRES WAVE SWELL AIR SEA DIR/SP/G HT/PER HT/PER (UTC) (F) (DEG/KT/KT) (MB) (FT/S) (FT/S) CHESAPEAKE LIGHT 1000 43 240/ 13/ 13 1012.9 64 E VA BEACH 1100 49 49 250/ 17/ 21 1011.9 4/ 5 2/11 DUCK 1100 45 43 240/ 9/ 11 1012.1 2 E DUCK 1000 43 N/A 2/11 2/11 10 NE DUCK 1100 44 N/A 2/12 2/12 OREGON INLET 1100 44 43 200/ 8/ 8 1013.2 13E OREGON INLT 1100 43 N/A 3/11 2/11 HATTERAS CG 1100 52 44 240/ 9/ 15 1014.3 DIAMOND BUOY 1100 60 69 260/ 25/ 31 1013.0 7/ 6 2/ 9 17 S OCRACOKE NOT AVBL CAPE LOOKOUT 1000 54 240/ 12/ 16 1014.4 BEAUFORT LAB 1100 52 47 260/ 6/ 11 1013.5 27 SE WRIGHTSVLE NOT AVBL 5 SE WRIGHTSVLE 1000 54 52 240/ 12/ 14 1014.8 225 S CAPE HAT 1046 65 71 220/ 19/ 25 1017.6 4/ 9 3/ 9 41 SE CHARLESTON 1100 62 68 240/ 21/ 25 1016.0 6/ 6 2/ 9 $$

USA.gov is the U.S. government's official web portal to all federal, state and local government web resources and services.